GEFSMA_500_meanwind_264.txt.gz
Wind_Speed
10 10 10 11 11 10 9 10 10 10 10 10 10 10 10 11 11 11 9 9 9 9 9 9 8 9 9 9 9 9 9 10 10 11 11 11 11 11 11 11 11 11 11
11 11 11 11 10 10 10 10 10 10 11 11 10 11 11 11 10 9 9 9 9 9 9 9 9 9 9 9 9 9 9 9 10 10 10 11 11 11 11 11 11 11 11
11 11 11 11 10 10 11 10 10 11 11 11 11 11 11 11 10 10 9 10 10 10 10 10 10 10 10 10 10 10 10 10 10 11 11 11 12 12 12 12 12 12 12
11 11 11 11 11 11 11 11 11 11 11 11 11 11 10 10 10 10 10 11 11 11 11 11 11 10 10 10 10 10 10 10 11 11 12 12 13 14 14 14 14 13 13
12 12 12 11 11 11 12 12 12 12 11 11 11 11 10 10 11 11 12 12 11 12 12 11 12 12 12 11 11 11 11 11 10 11 12 12 14 14 15 14 14 14 14
13 13 12 12 12 12 12 12 12 12 11 11 11 11 11 11 11 12 12 12 12 12 13 12 13 13 13 12 11 12 12 11 11 12 12 12 13 12 13 14 14 15 15
12 13 13 13 13 12 13 12 12 12 11 11 11 11 11 12 12 12 12 12 12 12 13 13 13 13 13 12 12 13 13 12 12 12 12 12 12 11 12 14 14 14 15
11 12 13 13 13 12 13 12 11 11 11 11 11 11 11 11 11 12 12 12 12 12 12 12 13 12 12 13 13 13 13 13 13 13 13 13 12 12 12 13 14 14 14
11 12 12 12 12 12 12 12 11 11 11 11 11 12 11 11 11 11 12 12 12 12 13 13 13 13 13 13 13 13 13 13 13 13 13 13 13 13 13 14 15 15 15
12 13 13 12 12 12 12 11 11 11 11 11 12 12 12 12 12 12 12 13 13 14 14 14 14 14 13 13 13 13 13 13 13 13 13 13 13 13 14 14 15 16 16
13 13 13 12 12 12 12 11 11 12 12 12 11 12 13 13 13 13 13 13 13 14 14 14 14 14 13 13 13 13 13 14 14 14 13 13 13 13 14 14 14 15 15
13 13 13 13 12 12 12 12 12 12 13 13 13 13 13 13 13 14 14 14 14 14 14 14 14 15 14 14 15 15 15 14 14 14 14 14 14 14 14 14 14 15 15
14 14 13 13 12 12 12 13 13 13 13 13 14 14 14 14 14 14 14 14 14 14 14 14 15 15 15 15 15 15 15 15 15 15 15 15 15 15 15 14 14 15 15
15 15 14 14 13 13 13 13 13 14 14 14 15 15 15 15 15 14 14 14 14 14 14 15 15 15 16 16 15 15 15 15 16 16 15 15 15 16 16 15 15 15 15
17 16 15 14 14 13 13 13 14 14 15 16 16 15 15 15 15 15 15 15 15 14 15 16 16 16 16 16 16 16 15 16 16 16 16 16 16 16 16 16 16 16 16
17 16 16 15 14 14 14 15 15 16 16 17 17 17 16 16 16 16 16 16 16 16 16 16 16 15 16 16 15 15 15 15 15 15 15 16 16 17 17 17 17 17 18
17 16 16 16 16 16 16 16 17 17 17 17 18 17 16 16 16 17 17 17 17 17 17 16 15 15 16 16 16 16 15 16 16 16 16 17 17 17 17 17 17 17 17
17 17 17 17 17 16 16 17 18 18 17 17 17 17 16 16 17 18 18 17 17 17 17 16 16 16 16 16 16 16 16 16 16 16 16 17 17 17 17 17 17 17 17
17 17 17 17 17 18 18 18 18 18 18 18 18 17 17 17 17 17 17 17 17 17 17 16 16 16 16 16 16 16 16 16 15 16 16 16 17 17 17 17 17 18 18
17 18 18 19 19 19 20 20 19 18 18 18 19 19 18 18 17 17 17 17 17 17 17 17 16 17 17 17 17 16 16 16 15 16 16 17 17 17 17 18 18 18 19
17 17 18 19 20 19 20 20 19 20 20 20 19 19 18 18 18 17 18 18 18 18 18 18 18 17 17 17 17 17 16 16 16 17 17 18 18 18 18 19 19 19 19
19 18 19 20 20 20 20 20 21 21 20 20 19 19 19 19 19 18 18 18 18 18 18 18 18 18 18 18 17 17 17 17 17 18 18 18 18 19 19 19 19 19 19
20 20 20 20 20 20 20 21 21 21 21 20 20 20 20 20 20 19 19 19 18 18 18 18 19 19 19 19 19 19 19 19 18 18 18 18 18 18 19 19 19 19 20
22 22 21 21 21 21 21 22 22 22 22 22 22 22 21 21 20 19 19 19 19 19 19 19 19 20 20 20 20 20 19 20 20 20 19 18 18 19 19 19 20 20 21
23 23 22 22 22 22 22 22 23 23 22 23 23 23 22 22 21 21 21 21 20 20 21 20 20 20 20 20 20 21 20 20 20 20 20 20 19 20 20 20 21 21 22
23 23 23 23 23 24 23 23 22 22 22 23 23 23 23 23 23 23 22 22 22 22 22 22 22 22 22 22 22 22 21 20 20 21 21 21 21 21 21 21 21 21 22

GEFSMA_500_meanwind_270.txt.gz
Wind_Speed
10 11 11 11 11 11 10 10 10 10 10 10 10 11 11 11 11 11 10 10 10 9 10 10 10 9 9 9 10 10 10 11 12 12 12 12 12 12 12 11 11 11 10
11 11 11 11 11 11 11 11 11 11 11 11 11 11 11 11 12 11 11 11 10 10 10 10 10 10 10 9 10 11 12 12 12 12 12 12 12 12 12 12 12 12 11
11 11 11 11 11 11 11 11 12 12 12 12 12 11 11 11 11 11 11 11 11 11 11 10 10 11 11 10 10 11 12 12 12 12 12 12 13 13 13 14 14 13 13
11 11 11 11 11 11 11 12 12 12 12 12 12 12 12 11 11 11 11 11 11 12 12 12 12 12 12 11 11 12 12 12 12 12 13 13 14 13 14 14 14 15 14
12 12 12 12 12 11 12 12 13 13 13 12 12 13 12 12 11 11 12 11 12 12 13 13 12 13 12 12 12 12 13 13 13 14 14 14 15 15 15 15 15 15 16
13 13 13 12 13 13 13 13 13 13 13 13 13 13 13 13 12 12 12 12 12 12 12 12 13 13 13 13 14 14 13 13 14 14 15 15 16 16 16 16 16 16 16
13 14 14 13 13 14 13 13 13 13 13 13 13 13 13 13 13 14 13 12 12 12 12 13 13 13 14 14 14 14 15 14 15 15 15 15 15 15 15 15 15 16 16
14 13 14 14 14 14 14 13 13 13 13 13 13 13 13 13 13 14 14 14 13 13 13 14 14 14 14 15 15 15 15 15 16 15 15 15 14 14 15 15 16 16 16
14 14 13 14 14 14 14 14 13 13 14 13 13 13 13 13 13 13 14 14 14 14 14 15 15 15 15 15 15 15 15 16 15 16 15 15 14 14 14 15 15 16 17
14 14 14 14 14 14 14 14 14 14 14 13 13 13 14 14 14 14 14 14 14 14 14 14 15 15 15 15 15 15 15 15 16 16 16 15 15 15 15 16 16 16 17
14 14 14 14 14 14 14 14 14 14 15 14 13 14 14 14 14 14 14 14 14 14 15 15 15 15 16 16 16 16 16 16 16 16 16 16 16 16 16 16 16 16 16
15 15 15 15 15 15 14 15 15 15 15 15 14 14 14 15 15 16 15 15 14 15 15 15 16 16 16 16 16 17 17 18 18 17 17 17 17 17 17 17 17 17 17
16 15 15 16 15 15 16 16 15 16 15 15 14 14 15 15 16 16 16 16 16 15 16 16 16 16 16 16 16 17 17 18 18 18 18 18 18 18 17 17 17 17 17
17 17 17 16 16 16 16 16 16 16 15 14 14 14 15 16 16 16 17 17 17 16 16 17 17 17 17 17 17 17 17 17 17 17 17 17 18 18 17 17 17 17 18
18 17 17 16 17 17 16 16 15 16 15 15 16 16 17 17 17 17 17 17 17 17 17 17 18 18 18 18 17 17 17 16 17 16 17 17 17 18 18 18 18 18 18
18 18 18 17 17 16 17 17 17 16 16 17 18 18 18 18 18 18 18 18 17 17 17 17 18 18 18 18 18 17 16 15 15 16 17 18 18 18 18 18 19 19 19
19 18 18 18 18 18 18 18 18 17 18 19 19 19 19 18 19 19 18 18 18 18 18 18 18 18 18 18 18 17 17 16 16 17 17 17 17 17 18 18 18 18 18
19 18 19 19 19 19 19 19 19 19 19 19 19 20 20 20 19 19 19 18 18 18 19 19 18 18 18 18 17 17 17 17 17 18 17 17 17 17 17 17 17 17 17
19 19 19 20 20 20 20 20 20 20 21 21 21 21 20 20 19 19 19 19 18 19 19 19 18 18 18 18 18 17 17 17 18 18 18 18 18 17 17 17 17 17 17
21 20 20 20 20 20 20 20 20 21 22 22 22 21 21 20 20 20 19 19 19 20 20 19 19 18 18 18 18 18 18 17 18 18 18 18 18 18 18 17 17 17 17
22 21 21 21 20 20 20 20 21 21 21 22 22 22 21 20 20 20 20 20 20 20 20 20 20 19 18 18 18 18 18 19 19 19 18 18 19 19 18 18 18 17 17
22 21 21 21 21 21 21 21 22 22 22 23 22 22 21 20 21 21 21 21 21 20 20 20 20 19 19 19 18 19 19 20 20 20 20 20 20 19 19 19 19 18 19
22 21 20 21 22 22 22 23 23 23 23 23 22 22 22 22 22 22 22 21 21 21 21 21 20 20 20 20 20 20 20 20 21 20 21 20 21 20 20 20 21 21 21
21 21 21 22 22 23 23 23 23 23 24 23 23 23 24 23 23 23 22 22 22 22 22 22 21 21 21 22 22 21 21 21 22 22 21 21 21 21 21 21 22 22 22
22 22 22 22 23 24 24 25 25 24 24 24 24 24 24 24 24 23 23 22 22 23 23 22 22 22 21 22 22 22 22 22 22 22 23 23 22 22 22 22 23 23 23
23 23 23 24 24 24 24 24 24 24 24 24 24 23 23 23 23 23 23 23 24 24 24 23 23 23 23 23 23 23 23 23 22 22 22 23 24 24 24 24 24 24 24

GEFSMA_500_meanwind_276.txt.gz
Wind_Speed
10 10 10 10 10 10 11 11 10 10 10 10 10 11 11 11 10 10 10 10 10 10 9 9 10 11 11 11 12 12 11 11 12 12 12 12 12 13 12 13 14 14 14
11 11 11 11 11 11 11 11 11 11 10 10 10 11 11 11 11 10 10 10 10 10 10 10 10 10 11 12 11 11 11 11 12 12 12 12 13 13 12 12 13 14 14
13 12 12 12 11 12 12 12 11 11 11 11 11 11 11 11 11 11 11 10 10 10 11 11 11 11 11 11 12 11 11 11 12 13 13 13 14 14 14 13 14 14 14
13 13 13 12 12 12 12 12 11 12 12 12 12 12 12 11 11 11 11 11 11 12 12 12 12 12 12 12 12 12 12 12 12 13 13 13 14 14 14 14 15 15 15
15 15 14 13 13 13 13 12 12 13 13 13 13 13 13 12 12 11 11 11 12 12 12 12 13 13 13 13 13 13 13 13 13 14 14 14 15 15 15 15 15 15 15
15 16 15 15 15 15 14 14 14 14 14 13 13 13 13 13 13 12 12 12 12 12 12 12 13 13 13 14 14 14 14 14 15 15 15 16 16 16 16 16 16 16 16
15 16 16 15 15 15 15 15 14 14 14 14 14 13 13 13 13 13 13 13 13 13 13 14 14 14 14 14 14 14 15 15 15 16 16 17 17 17 17 17 17 17 17
16 16 16 16 15 15 15 14 14 14 14 14 14 13 13 13 13 13 14 14 13 14 14 14 14 14 14 14 14 15 15 15 15 16 16 17 17 17 18 18 17 17 18
16 16 16 15 14 14 15 14 14 14 14 14 14 14 13 13 13 14 14 13 14 14 14 14 14 14 14 14 15 15 16 16 16 16 17 17 16 16 17 18 18 18 18
16 15 15 15 14 15 15 15 15 15 15 15 14 14 14 14 13 13 13 14 13 13 14 14 14 14 15 15 16 16 16 17 17 17 17 16 16 16 17 18 18 19 19
15 14 14 14 15 15 15 16 16 15 15 15 15 15 15 15 14 14 13 14 14 13 14 14 15 16 16 16 16 17 17 18 18 18 17 16 17 17 18 18 18 18 18
16 15 15 15 16 16 16 17 17 17 16 16 16 16 15 15 15 14 14 14 14 14 14 15 16 16 16 17 17 17 17 18 18 17 17 17 16 16 17 17 17 17 18
17 17 17 16 17 17 17 17 17 17 17 16 16 16 16 16 15 15 15 14 14 15 15 16 17 17 18 17 17 17 17 18 18 17 17 17 17 17 17 17 17 17 17
18 18 18 18 18 18 17 17 18 18 18 18 17 17 17 17 16 16 15 16 16 16 16 17 17 18 18 18 17 17 17 18 18 18 18 18 18 18 17 17 17 17 18
19 19 19 19 18 18 19 19 19 19 19 19 19 18 18 17 17 17 17 17 17 18 18 18 18 18 18 18 18 18 17 18 18 18 19 19 18 18 17 17 17 17 18
19 20 19 19 19 20 20 20 19 19 19 20 19 18 18 18 18 18 18 18 18 18 18 18 19 18 18 18 18 18 18 18 18 18 18 18 18 18 18 18 17 17 17
19 20 20 19 19 19 20 20 19 19 19 19 19 19 19 19 18 19 19 19 18 18 18 19 19 19 19 19 19 19 19 18 18 18 18 18 18 17 17 17 17 18 17
20 20 20 20 20 20 20 20 19 19 19 19 19 19 19 19 19 20 20 20 20 20 19 19 18 19 19 19 19 19 19 18 18 18 18 18 17 17 17 17 17 17 17
20 20 20 20 20 20 20 20 20 21 21 20 20 20 20 20 20 19 20 20 20 20 20 20 19 19 19 19 19 19 19 19 18 18 18 18 18 18 17 17 17 17 17
20 20 20 21 20 20 20 20 20 21 20 20 20 20 20 20 20 19 19 20 20 20 20 20 20 20 19 19 19 18 18 19 19 18 18 18 19 19 19 19 19 19 19
20 20 21 21 21 20 20 20 20 20 20 20 20 20 20 20 20 20 20 20 21 21 20 21 21 20 20 19 19 19 19 19 19 20 20 20 20 20 19 19 20 20 20
20 20 21 21 21 20 20 21 21 21 21 21 21 21 22 22 22 22 22 21 21 21 20 21 21 20 20 20 20 20 20 20 20 21 21 21 21 21 20 20 20 20 20
19 20 21 21 21 21 21 22 22 21 22 22 21 22 22 23 23 23 23 23 22 22 21 22 21 21 21 21 21 21 21 21 21 21 22 22 22 22 22 22 21 21 21
20 21 21 21 21 22 22 23 22 22 23 23 23 23 23 23 23 22 22 22 22 22 22 22 22 22 22 23 23 22 22 22 22 22 22 23 23 23 23 23 23 23 22
20 21 21 22 22 22 22 22 22 23 23 23 23 24 24 23 23 23 23 23 23 23 23 23 22 22 23 23 24 24 24 24 23 24 24 24 23 24 24 25 24 24 24
21 21 21 22 22 23 23 23 23 24 24 25 25 25 25 25 24 25 25 25 24 24 25 25 25 25 24 24 24 25 25 25 25 25 25 25 24 24 24 24 25 25 24

GEFSMA_500_meanwind_282.txt.gz
Wind_Speed
13 13 13 12 12 12 12 12 12 12 12 12 12 11 12 12 11 11 11 12 12 11 11 11 11 11 11 11 11 11 11 11 11 11 12 13 13 14 15 15 16 16 16
14 14 13 13 13 13 13 12 13 13 12 12 12 11 11 12 12 12 12 12 12 12 13 12 12 12 12 12 12 12 11 11 11 12 13 13 14 14 15 15 16 16 16
14 14 14 13 14 14 13 13 13 13 13 12 12 12 12 12 12 12 12 12 12 12 12 12 12 12 11 11 12 11 11 12 12 13 13 14 14 15 15 15 15 16 16
14 14 14 14 15 15 14 15 14 14 14 13 13 13 13 13 13 12 12 12 12 12 12 12 13 12 13 13 12 12 12 13 13 13 13 14 14 15 16 17 16 17 17
14 14 14 14 14 15 15 16 15 14 14 13 14 14 13 13 13 13 13 12 12 12 12 13 13 13 14 14 13 14 14 14 14 14 15 15 15 15 17 16 17 16 16
14 15 15 15 15 16 16 16 15 14 14 13 13 14 13 13 13 13 13 12 12 12 13 13 13 14 14 13 14 14 14 14 14 15 15 15 15 16 16 16 16 16 16
14 15 15 16 16 16 16 16 15 15 15 14 14 14 14 13 13 13 13 13 13 14 14 14 14 14 15 14 15 15 15 15 15 15 15 15 16 16 16 16 16 16 16
14 14 15 15 16 16 16 15 15 15 14 14 14 14 15 14 14 14 14 14 14 14 14 14 14 14 15 15 16 16 16 16 15 16 16 16 16 17 17 16 16 16 17
15 15 15 15 15 15 15 15 15 14 15 14 14 14 15 15 15 15 14 15 15 15 14 15 15 15 14 15 16 16 16 16 16 16 16 17 18 17 17 17 17 16 16
16 16 15 15 15 15 15 15 15 15 16 16 15 14 15 16 15 15 15 15 15 15 15 15 15 15 15 15 16 16 16 16 16 16 17 17 17 17 17 17 17 16 16
17 16 16 16 16 15 15 15 16 16 16 16 16 16 16 16 16 16 15 15 15 16 16 16 16 15 15 15 16 16 16 16 16 16 17 17 16 16 16 17 17 17 17
17 16 16 16 16 16 16 16 16 16 16 16 17 17 17 17 17 16 16 16 15 16 16 16 16 16 16 16 16 16 16 16 16 17 17 16 16 16 16 17 17 18 17
16 17 17 17 17 17 17 17 16 17 17 16 17 17 17 17 18 17 17 17 17 16 16 17 17 16 16 16 16 17 17 17 17 17 17 16 16 16 16 17 17 17 17
17 17 17 18 18 17 17 17 17 17 17 17 16 17 17 17 17 17 17 17 17 17 17 17 18 17 17 17 17 17 18 18 18 18 17 17 17 16 16 16 17 17 17
17 17 17 17 18 17 17 17 17 18 18 17 17 17 18 17 17 18 18 18 18 17 18 18 18 18 18 18 18 18 18 18 18 18 18 17 17 17 17 17 16 16 16
17 17 17 17 18 18 17 18 18 18 18 18 18 18 18 18 18 18 18 18 18 18 18 18 18 18 18 18 18 19 19 18 18 18 17 17 17 17 17 17 16 16 16
17 17 18 17 17 18 18 18 18 18 19 19 19 19 18 18 18 19 19 19 19 19 18 18 17 17 17 18 19 19 19 19 19 18 18 18 17 17 17 17 17 17 17
19 19 18 18 18 18 18 18 19 19 19 20 20 20 19 19 19 19 19 20 19 19 19 19 18 18 18 19 19 20 20 20 20 20 19 19 18 18 18 18 18 18 18
19 19 19 19 19 19 19 19 19 20 20 20 20 20 20 20 20 20 20 20 20 19 19 20 20 19 19 20 20 20 20 20 20 20 19 19 19 18 18 18 18 18 19
19 19 18 19 19 19 19 20 20 20 20 20 20 20 20 20 20 20 20 20 20 20 20 20 20 20 20 19 20 20 20 19 19 19 19 19 19 19 19 19 19 19 19
18 18 19 19 19 20 20 20 20 21 21 21 20 20 20 20 21 21 21 21 21 21 21 21 20 20 20 20 20 20 20 20 19 19 19 20 20 20 19 19 20 20 20
18 19 19 20 20 20 20 20 20 21 21 21 20 20 20 21 21 21 21 22 22 22 22 22 22 21 21 21 22 22 22 21 21 21 21 20 21 21 20 21 21 21 22
19 19 20 19 20 20 21 21 21 21 21 21 21 21 21 21 21 22 22 23 23 23 23 23 23 23 22 22 22 22 22 22 22 22 22 21 22 21 22 22 22 23 23
20 20 20 20 20 21 21 22 22 22 23 23 22 22 22 22 22 23 23 24 24 23 23 24 24 23 23 23 23 23 22 22 21 22 22 22 22 22 23 23 23 23 23
21 21 20 21 21 21 22 22 22 22 22 22 22 23 23 23 24 24 25 24 24 24 24 24 24 25 24 24 24 24 23 23 23 22 23 23 23 24 24 24 24 24 24
21 21 21 22 22 22 22 22 23 23 22 22 22 22 23 24 24 25 25 25 24 25 25 25 25 25 25 25 25 25 25 25 25 25 24 24 24 24 24 25 25 25 26

GEFSMA_500_meanwind_288.txt.gz
Wind_Speed
11 11 12 12 12 12 12 12 12 12 12 12 12 11 11 11 12 12 12 12 12 12 12 12 12 13 13 12 12 12 12 12 11 12 12 12 13 14 14 14 15 16 17
10 12 12 12 12 12 12 11 11 12 12 12 12 11 11 12 12 12 12 12 12 13 12 12 12 12 12 13 13 13 12 13 12 12 12 12 13 14 15 16 16 15 16
12 12 12 12 12 12 12 11 11 12 12 12 12 12 12 12 12 12 12 12 12 13 13 13 13 12 12 12 12 12 12 12 12 13 13 14 14 15 15 15 16 16 17
11 12 12 12 12 12 12 11 11 12 12 12 11 11 11 12 11 11 12 12 12 12 13 13 13 13 13 13 12 12 12 12 13 13 14 14 15 16 16 16 16 17 17
12 12 13 12 12 12 12 12 12 12 12 12 12 11 11 11 12 12 12 12 12 12 12 13 12 12 12 12 12 13 13 13 13 14 14 14 15 15 16 17 17 17 17
12 12 12 12 12 13 13 13 13 13 12 12 12 12 12 12 12 13 13 13 12 12 13 13 13 13 13 13 13 13 13 13 14 14 15 15 15 15 16 17 18 18 18
12 12 12 12 13 13 13 13 13 13 13 13 13 13 13 13 13 13 14 13 13 14 14 13 13 13 13 14 14 13 13 13 14 14 15 16 16 16 17 17 17 18 18
12 12 12 12 13 13 13 13 13 13 13 13 13 13 14 14 14 14 14 14 14 14 14 14 14 14 14 14 14 14 14 14 14 15 16 16 17 17 18 18 18 18 19
12 12 12 13 13 13 13 14 13 13 13 13 14 14 14 15 15 15 15 14 14 14 14 14 14 14 14 14 14 14 14 14 15 15 16 16 16 17 17 17 18 18 18
12 12 12 12 13 13 14 14 14 14 14 14 14 14 14 14 15 16 16 16 15 15 15 14 15 14 14 15 14 14 14 15 15 15 16 16 17 17 17 17 17 18 18
12 12 12 13 13 13 13 14 13 14 14 14 14 14 14 14 15 16 15 15 15 15 15 15 14 14 14 14 15 15 15 15 16 16 16 17 17 18 18 17 17 17 17
13 13 13 13 14 13 14 14 14 14 14 14 14 15 15 15 16 15 15 15 15 15 15 15 15 15 15 15 15 15 15 16 16 16 16 17 17 17 17 18 18 18 17
14 14 14 14 14 14 14 14 14 14 14 14 14 14 15 15 16 16 16 15 16 16 16 16 16 17 16 16 16 16 16 16 16 16 16 16 16 16 16 17 17 17 17
15 14 14 14 14 14 15 15 15 15 15 15 15 15 15 16 16 16 16 16 16 16 16 16 16 17 17 17 17 17 17 17 16 16 16 16 17 16 16 16 17 17 17
15 15 14 15 15 15 15 16 16 15 16 16 16 16 16 16 16 17 17 17 17 17 16 17 18 18 18 18 17 18 18 18 17 17 17 17 17 17 17 17 17 17 18
15 15 15 15 15 15 15 16 16 16 16 17 17 17 17 16 16 17 18 19 19 18 18 17 17 17 17 17 18 18 18 18 18 18 18 18 18 18 18 17 17 18 18
15 15 16 16 16 16 17 17 17 17 17 17 17 17 18 18 17 17 18 18 19 19 19 18 18 18 18 18 18 19 19 19 19 19 19 20 20 19 18 18 18 18 19
16 16 17 17 17 17 18 18 18 18 18 18 18 19 19 19 18 18 18 18 18 19 19 19 18 19 19 19 19 20 20 21 21 20 20 20 20 19 19 19 19 19 19
17 17 17 17 17 18 18 18 18 18 19 19 19 19 20 20 19 19 19 19 19 19 19 19 19 19 20 20 20 20 21 21 21 20 20 19 19 18 18 19 19 19 19
17 17 17 17 17 18 18 18 19 19 19 20 20 20 20 19 19 19 19 19 19 20 20 20 20 20 21 22 22 21 21 20 20 20 19 19 19 19 19 20 20 20 20
18 18 18 18 18 18 19 19 19 19 19 19 19 19 19 19 19 19 19 19 20 21 21 21 21 22 22 22 22 21 21 20 20 20 20 20 20 20 20 20 21 21 22
18 18 18 18 18 19 19 20 19 19 19 19 19 19 19 19 19 19 20 20 20 20 21 21 22 22 23 22 22 21 21 21 21 21 21 21 21 21 21 21 21 22 22
19 18 18 18 18 18 19 19 19 19 19 19 19 19 19 19 19 19 20 20 20 21 21 21 22 23 23 22 22 22 22 22 22 22 22 22 22 22 22 22 22 23 23
19 19 19 20 19 19 19 18 19 19 19 20 19 19 18 19 19 19 19 20 20 21 21 22 22 23 23 23 22 23 23 24 24 24 23 23 23 23 23 23 24 24 24
19 19 19 20 20 20 20 20 20 20 20 20 20 19 19 19 19 19 20 21 21 22 22 22 23 23 23 23 24 24 24 25 25 25 25 25 25 24 25 25 25 25 25
20 20 20 20 20 20 20 20 20 20 20 21 20 20 20 20 20 20 21 22 22 22 23 23 23 23 23 23 24 24 24 25 25 25 26 26 26 26 25 25 26 26 26